GW3881 Weather Reports


Display with metric or nautical units.
time (UTC)temp
F
wind
direction
speed
MPH
gust
MPH
rain 1hr
in
rain 24hr
in
rain mn
in
humidity
%
barometer
mb
20260502235029 60 249 4.0 5.0 0.00 0.00 0.00 33 1233.4
20260502234525 60 264 1.0 2.0 0.00 0.00 0.00 33 1233.4
20260502234023 60 273 8.0 10.0 0.00 0.00 0.00 32 1233.4
20260502233518 60 268 6.0 6.0 0.00 0.00 0.00 32 1233.4
20260502233015 60 274 6.0 8.0 0.00 0.00 0.00 32 1233.4
20260502232511 60 232 4.0 6.0 0.00 0.00 0.00 32 1233.4
20260502232008 60 250 6.0 8.0 0.00 0.00 0.00 32 1233.4
20260502231505 60 261 5.0 6.0 0.00 0.00 0.00 32 1233.4
20260502231004 61 276 5.0 6.0 0.00 0.00 0.00 32 1233.4
20260502230501 61 251 9.0 13.0 0.00 0.00 0.00 31 1233.4
20260502230000 61 253 4.0 6.0 0.00 0.00 0.00 31 1233.4
20260502225455 60 278 4.0 6.0 0.00 0.00 0.00 31 1233.4
20260502224952 60 282 10.0 13.0 0.00 0.00 0.00 31 1233.4
20260502224448 61 256 4.0 5.0 0.00 0.00 0.00 31 1233.4
20260502223945 61 257 9.0 11.0 0.00 0.00 0.00 29 1233.4
20260502223443 62 262 4.0 6.0 0.00 0.00 0.00 30 1233.4
20260502222941 61 271 6.0 8.0 0.00 0.00 0.00 30 1233.4
20260502222438 62 262 7.0 10.0 0.00 0.00 0.00 33 1233.4
20260502221934 62 288 4.0 5.0 0.00 0.00 0.00 31 1233.4
20260502221430 62 276 10.0 13.0 0.00 0.00 0.00 30 1233.4
20260502220927 62 280 6.0 8.0 0.00 0.00 0.00 31 1233.4
20260502220423 62 276 13.0 16.0 0.00 0.00 0.00 30 1233.4
20260502215920 61 262 6.0 8.0 0.00 0.00 0.00 30 1233.4
20260502215417 62 289 7.0 10.0 0.00 0.00 0.00 30 1233.4
20260502214914 62 269 4.0 5.0 0.00 0.00 0.00 33 1233.4
20260502214411 62 261 3.0 6.0 0.00 0.00 0.00 31 1233.4
20260502213908 62 247 4.0 6.0 0.00 0.00 0.00 32 1233.4
20260502213405 62 248 8.0 10.0 0.00 0.00 0.00 29 1233.4
20260502212904 63 299 9.0 11.0 0.00 0.00 0.00 30 1233.4
20260502212402 64 260 6.0 8.0 0.00 0.00 0.00 29 1233.4
20260502211859 63 265 2.0 3.0 0.00 0.00 0.00 29 1233.4
20260502211359 62 255 3.0 3.0 0.00 0.00 0.00 33 1233.4
20260502210857 61 237 7.0 10.0 0.00 0.00 0.00 28 1233.4
20260502210354 61 240 4.0 5.0 0.00 0.00 0.00 30 1233.4
20260502205852 62 295 5.0 6.0 0.00 0.00 0.00 30 1233.4
20260502205347 62 287 8.0 11.0 0.00 0.00 0.00 28 1233.4
20260502204845 62 275 4.0 5.0 0.00 0.00 0.00 29 1233.4
20260502204342 62 279 8.0 11.0 0.00 0.00 0.00 28 1233.4
20260502203839 62 264 7.0 8.0 0.00 0.00 0.00 31 1233.4
20260502203337 63 269 7.0 10.0 0.00 0.00 0.00 30 1233.4
20260502202832 62 263 1.0 2.0 0.00 0.00 0.00 31 1233.4
20260502202330 62 262 10.0 14.0 0.00 0.00 0.00 30 1233.4
20260502201827 61 251 3.0 6.0 0.00 0.00 0.00 29 1233.4
20260502201323 60 288 4.0 5.0 0.00 0.00 0.00 33 1233.4
20260502200820 62 236 11.0 14.0 0.00 0.00 0.00 29 1233.4
20260502200315 61 167 4.0 5.0 0.00 0.00 0.00 29 1233.4
20260502195814 60 259 5.0 6.0 0.00 0.00 0.00 33 1233.4
20260502195310 61 293 2.0 3.0 0.00 0.00 0.00 29 1233.4
20260502194807 60 283 9.0 13.0 0.00 0.00 0.00 31 1233.4
20260502194304 59 312 6.0 8.0 0.00 0.00 0.00 32 1233.4
20260502193759 61 206 5.0 6.0 0.00 0.00 0.00 28 1233.4
20260502193257 60 275 5.0 8.0 0.00 0.00 0.00 28 1233.4
20260502192757 60 222 6.0 10.0 0.00 0.00 0.00 32 1233.4
20260502192255 60 259 8.0 11.0 0.00 0.00 0.00 32 1233.4
20260502191751 60 263 4.0 6.0 0.00 0.00 0.00 33 1233.4
20260502191250 60 270 3.0 8.0 0.00 0.00 0.00 31 1233.4
20260502190746 59 268 3.0 3.0 0.00 0.00 0.00 31 1233.4
20260502190244 60 302 7.0 10.0 0.00 0.00 0.00 30 1233.4
20260502185744 60 261 1.0 3.0 0.00 0.00 0.00 34 1233.4
20260502185241 60 266 4.0 6.0 0.00 0.00 0.00 31 1233.4
20260502184737 60 246 4.0 6.0 0.00 0.00 0.00 33 1233.4
20260502184233 59 313 3.0 5.0 0.00 0.00 0.00 31 1233.4
20260502183730 60 314 9.0 13.0 0.00 0.00 0.00 30 1233.4
20260502183226 60 181 4.0 6.0 0.00 0.00 0.00 31 1233.4
20260502182721 60 290 6.0 6.0 0.00 0.00 0.00 35 1233.4
20260502182217 59 270 4.0 5.0 0.00 0.00 0.00 31 1233.4
20260502181714 59 184 2.0 3.0 0.00 0.00 0.00 29 1233.4
20260502181214 58 258 3.0 5.0 0.00 0.00 0.00 31 1233.4
20260502180710 58 289 5.0 6.0 0.00 0.00 0.00 32 1233.4
20260502180208 58 282 3.0 5.0 0.00 0.00 0.00 35 1233.4
20260502170132 56 302 4.0 6.0 0.00 0.00 0.00 33 1233.4
20260502164118 56 271 1.0 2.0 0.00 0.00 0.00 35 1233.4
20260502163614 57 269 1.0 3.0 0.00 0.00 0.00 37 1233.4
20260502163111 56 204 8.0 10.0 0.00 0.00 0.00 32 1233.4
20260502162608 57 146 4.0 5.0 0.00 0.00 0.00 28 1233.4
20260502162105 57 275 8.0 11.0 0.00 0.00 0.00 32 1233.4
20260502161602 56 286 4.0 6.0 0.00 0.00 0.00 36 1233.4
20260502161059 55 318 3.0 5.0 0.00 0.00 0.00 39 1233.4
20260502160557 56 251 2.0 2.0 0.00 0.00 0.00 33 1233.4
20260502152010 54 267 3.0 5.0 0.00 0.00 0.00 43 1233.4
20260502151507 54 252 3.0 5.0 0.00 0.00 0.00 46 1233.4
20260502151004 53 256 4.0 5.0 0.00 0.00 0.00 43 1233.4
20260502150502 54 304 5.0 6.0 0.00 0.00 0.00 47 1233.4
20260502130347 42 242 0.0 0.0 0.00 0.00 0.00 80 1233.4
20260502123329 37 250 2.0 2.0 0.00 0.00 0.00 84 1233.4
20260502122826 37 249 1.0 2.0 0.00 0.00 0.00 85 1233.4
20260502122322 36 230 0.0 2.0 0.00 0.00 0.00 86 1233.4
20260502121821 35 230 0.0 2.0 0.00 0.00 0.00 86 1233.4
20260502121318 35 229 0.0 0.0 0.00 0.00 0.00 87 1233.4
20260502120815 35 229 0.0 0.0 0.00 0.00 0.00 86 1233.4
20260502120311 34 229 0.0 0.0 0.00 0.00 0.00 88 1233.4
20260502115809 34 229 0.0 0.0 0.00 0.00 0.00 88 1233.4
20260502115306 33 229 0.0 0.0 0.00 0.00 0.00 89 1233.4
20260502114802 32 229 0.0 0.0 0.00 0.00 0.00 91 1233.4
20260502114258 31 229 0.0 0.0 0.00 0.00 0.00 93 1233.4
20260502113755 30 229 0.0 0.0 0.00 0.00 0.00 94 1233.4
20260502113253 30 229 0.0 0.0 0.00 0.00 0.00 94 1233.4
20260502112751 30 229 0.0 0.0 0.00 0.00 0.00 95 1233.4
20260502112249 30 229 0.0 0.0 0.00 0.00 0.00 95 1233.4
20260502111745 29 229 0.0 0.0 0.00 0.00 0.00 94 1233.4
20260502111243 29 229 0.0 0.0 0.00 0.00 0.00 94 1233.4
20260502110740 30 229 0.0 0.0 0.00 0.00 0.00 94 1233.4
20260502110238 30 229 0.0 0.0 0.00 0.00 0.00 94 1233.4
20260502105736 30 229 0.0 0.0 0.00 0.00 0.00 94 1233.4
20260502105232 30 229 0.0 0.0 0.00 0.00 0.00 94 1233.4
20260502104730 30 229 0.0 0.0 0.00 0.00 0.00 94 1233.4
20260502104227 30 229 0.0 0.0 0.00 0.00 0.00 93 1233.4
20260502103725 30 229 0.0 0.0 0.00 0.00 0.00 93 1233.4
20260502103222 31 229 0.0 0.0 0.00 0.00 0.00 92 1233.4
20260502102719 31 229 0.0 0.0 0.00 0.00 0.00 93 1233.4
20260502102216 31 229 0.0 0.0 0.00 0.00 0.00 93 1233.4
20260502101714 32 229 0.0 0.0 0.00 0.00 0.00 93 1233.4
20260502101212 32 229 0.0 0.0 0.00 0.00 0.00 93 1233.4
20260502100709 32 229 0.0 0.0 0.00 0.00 0.00 92 1233.4
20260502100208 32 229 0.0 0.0 0.00 0.00 0.00 92 1233.4
20260502091142 33 229 0.0 0.0 0.00 0.00 0.00 90 1233.4
20260502090639 33 229 0.0 0.0 0.00 0.00 0.00 90 1233.4
20260502090136 33 229 0.0 0.0 0.00 0.00 0.00 88 1233.4
20260502080104 38 228 0.0 0.0 0.00 0.00 0.00 75 1233.4
20260502071037 41 236 0.0 0.0 0.00 0.00 0.00 66 1233.4
20260502070535 41 358 4.0 5.0 0.00 0.00 0.00 65 1233.4
20260502070033 40 275 0.0 0.0 0.00 0.00 0.00 65 1233.4
20260502065531 40 4 4.0 5.0 0.00 0.00 0.00 64 1233.4
20260502065028 40 295 1.0 2.0 0.00 0.00 0.00 65 1233.4
20260502064527 40 345 1.0 3.0 0.00 0.00 0.00 64 1233.4
20260502064024 40 302 1.0 2.0 0.00 0.00 0.00 63 1233.4
20260502063521 41 263 0.0 0.0 0.00 0.00 0.00 65 1233.4
20260502063019 41 287 0.0 0.0 0.00 0.00 0.00 64 1233.4
20260502062516 41 241 0.0 0.0 0.00 0.00 0.00 62 1233.4
20260502062015 41 273 0.0 0.0 0.00 0.00 0.00 63 1233.4
20260502061512 41 269 0.0 2.0 0.00 0.00 0.00 60 1233.4
20260502061009 41 270 0.0 0.0 0.00 0.00 0.00 60 1233.4
20260502060503 41 271 0.0 0.0 0.00 0.00 0.00 64 1233.4
20260502060000 40 270 0.0 2.0 0.00 0.00 0.00 63 1233.4
20260502055458 40 250 0.0 0.0 0.00 0.00 0.00 66 1233.4
20260502054957 39 249 0.0 0.0 0.00 0.00 0.00 66 1233.4
20260502054455 40 247 0.0 0.0 0.00 0.00 0.00 67 1233.4
20260502053952 38 196 0.0 0.0 0.00 0.00 0.00 71 1233.4
20260502053449 37 249 0.0 0.0 0.00 0.00 0.00 77 1233.4
20260502052947 37 233 0.0 0.0 0.00 0.00 0.00 78 1233.4
20260502052445 37 233 0.0 0.0 0.00 0.00 0.00 79 1233.4
20260502051943 37 233 0.0 0.0 0.00 0.00 0.00 80 1233.4
20260502051441 37 233 0.0 0.0 0.00 0.00 0.00 80 1233.4
20260502050937 38 233 0.0 0.0 0.00 0.00 0.00 80 1233.4
20260502050434 38 233 0.0 0.0 0.00 0.00 0.00 78 1233.4
20260502045931 39 233 0.0 0.0 0.00 0.00 0.00 77 1233.4
20260502045428 39 233 0.0 0.0 0.00 0.00 0.00 75 1233.4
20260502044925 40 233 0.0 0.0 0.00 0.00 0.00 73 1233.4
20260502044420 41 237 0.0 0.0 0.00 0.00 0.00 69 1233.4
20260502043917 41 247 0.0 0.0 0.00 0.00 0.00 67 1233.4
20260502043416 41 248 0.0 0.0 0.00 0.00 0.00 66 1233.4
20260502042915 41 237 0.0 0.0 0.00 0.00 0.00 66 1233.4
20260502042413 41 240 0.0 0.0 0.00 0.00 0.00 69 1233.4
20260502041909 41 234 0.0 0.0 0.00 0.00 0.00 71 1233.4
20260502041407 40 240 0.0 0.0 0.00 0.00 0.00 74 1233.4
20260502040904 41 242 0.0 0.0 0.00 0.00 0.00 72 1233.4
20260502040400 41 260 0.0 0.0 0.00 0.00 0.00 73 1233.4
20260502035856 42 261 0.0 0.0 0.00 0.00 0.00 72 1233.4
20260502035353 42 261 0.0 0.0 0.00 0.00 0.00 65 1233.4
20260502034851 42 261 0.0 0.0 0.00 0.00 0.00 63 1233.4
20260502034349 42 261 0.0 0.0 0.00 0.00 0.00 61 1233.4
20260502033848 43 261 0.0 0.0 0.00 0.00 0.00 62 1233.4
20260502033345 43 261 0.0 0.0 0.00 0.00 0.00 61 1233.4
20260502032841 44 261 0.0 0.0 0.00 0.00 0.00 60 1233.4
20260502032337 44 262 0.0 0.0 0.00 0.00 0.00 56 1233.4
20260502031835 43 251 0.0 0.0 0.00 0.00 0.00 59 1233.4
20260502031333 43 251 0.0 0.0 0.00 0.00 0.00 59 1233.4
20260502030831 44 251 0.0 0.0 0.00 0.00 0.00 60 1233.4
20260502030329 44 251 0.0 0.0 0.00 0.00 0.00 60 1233.4
20260502025826 45 251 0.0 0.0 0.00 0.00 0.00 60 1233.4
20260502025324 45 251 0.0 0.0 0.00 0.00 0.00 54 1233.4
20260502024821 46 251 0.0 0.0 0.00 0.00 0.00 54 1233.4
20260502024319 46 251 0.0 0.0 0.00 0.00 0.00 51 1233.4
20260502023817 46 270 0.0 0.0 0.00 0.00 0.00 51 1233.4
20260502023315 46 269 0.0 0.0 0.00 0.00 0.00 51 1233.4
20260502022812 47 267 0.0 0.0 0.00 0.00 0.00 51 1233.4
20260502022308 47 273 1.0 2.0 0.00 0.00 0.00 50 1233.4
20260502021805 48 263 0.0 2.0 0.00 0.00 0.00 50 1233.4
20260502021302 48 269 0.0 2.0 0.00 0.00 0.00 49 1233.4
20260502020759 48 270 0.0 0.0 0.00 0.00 0.00 49 1233.4
20260502020257 49 257 0.0 0.0 0.00 0.00 0.00 49 1233.4
20260502015754 49 263 2.0 2.0 0.00 0.00 0.00 50 1233.4
20260502015250 49 262 1.0 2.0 0.00 0.00 0.00 50 1233.4
20260502014748 49 310 1.0 2.0 0.00 0.00 0.00 50 1233.4
20260502014245 48 282 0.0 0.0 0.00 0.00 0.00 52 1233.4
20260502013741 48 266 0.0 0.0 0.00 0.00 0.00 52 1233.4
20260502013237 49 255 0.0 0.0 0.00 0.00 0.00 52 1233.4
20260502012734 49 266 0.0 0.0 0.00 0.00 0.00 51 1233.4
20260502012232 49 269 1.0 2.0 0.00 0.00 0.00 51 1233.4
20260502011729 50 275 1.0 2.0 0.00 0.00 0.00 53 1233.4
20260502011224 50 284 0.0 2.0 0.00 0.00 0.00 55 1233.4
20260502010722 50 280 0.0 0.0 0.00 0.00 0.00 54 1233.4
20260502010218 50 284 0.0 0.0 0.00 0.00 0.00 55 1233.4
20260502005715 51 277 0.0 0.0 0.00 0.00 0.00 55 1233.4
20260502005213 51 266 0.0 0.0 0.00 0.00 0.00 51 1233.4
20260502004709 51 266 0.0 0.0 0.00 0.00 0.00 50 1233.4
20260502004206 51 262 0.0 0.0 0.00 0.00 0.00 50 1233.4
20260502003704 51 255 0.0 0.0 0.00 0.00 0.00 49 1233.4
20260502003201 52 255 1.0 2.0 0.00 0.00 0.00 48 1233.4
20260502002656 52 257 2.0 3.0 0.00 0.00 0.00 47 1233.4
20260502002155 53 265 1.0 2.0 0.00 0.00 0.00 48 1233.4
20260502001652 53 253 1.0 2.0 0.00 0.00 0.00 48 1233.4
20260502001149 53 272 3.0 3.0 0.00 0.00 0.00 48 1233.4
20260502000647 53 340 3.0 3.0 0.00 0.00 0.00 46 1233.4
20260502000144 54 288 1.0 2.0 0.00 0.00 0.00 48 1233.4
20260501235640 54 252 0.0 2.0 0.00 0.00 0.00 47 1233.4